Date String (YYYY-MM-DD hh:mm:ss) UTC,Instrument flags,Ambient pressure (hPa),Sample flow (lpm),Bypass flow (lpm),Sample temperature (°C),Ambient temperature (°C),ASC tube jacket temperature (°C),LED temperature (°C),Box temperature (°C),Sample RH (%),Span deviation,Mass concentration (μg/m³),Mass concentration (μg/m³),Mass concentration (μg/m³)
DateTimeUTC,F1_M11,P_M11,Q1_M11,Q2_M11,T1_M11,T2_M11,T3_M11,T4_M11,T5_M11,U1_M11,ZSPAN_M11,X2_M11,X0_M11,X1_M11
2022-03-02 20:00:00,,0829.1,5.02,0.00,30.5,27.8,00.0,39.6,31.9,10.6,-001.4,0007.21,0012.37,0006.58
2022-03-02 20:01:00,,0829.3,4.98,0.00,30.5,28.1,00.0,39.6,32.0,10.6,-001.5,0007.32,0013.37,0006.69
2022-03-02 20:02:00,,0829.3,5.01,0.00,30.4,28.5,00.0,39.5,32.0,10.5,-001.3,0007.48,0014.38,0006.82
2022-03-02 20:03:00,,0829.3,5.00,0.00,30.4,28.7,00.0,39.5,32.0,10.7,-001.4,0007.59,0013.96,0006.92
2022-03-02 20:04:00,,0829.3,5.01,0.00,30.5,29.0,00.0,39.5,32.1,10.5,-001.3,0007.65,0014.09,0007.03
2022-03-02 20:05:00,,0829.2,5.00,0.00,30.5,29.1,00.0,39.5,32.1,10.7,-001.2,0007.73,0014.15,0007.12
2022-03-02 20:06:00,,0829.3,5.00,0.00,30.5,29.3,00.0,39.5,32.2,10.6,-001.2,0007.85,0014.78,0007.21
2022-03-02 20:07:00,,0829.0,5.02,0.00,30.5,29.4,00.0,39.5,32.2,10.9,-001.2,0007.95,0015.41,0007.30
2022-03-02 20:08:00,,0828.9,4.99,0.00,30.5,29.5,00.0,39.5,32.2,10.8,-001.4,0008.07,0016.00,0007.43
2022-03-02 20:09:00,,0828.7,5.01,0.00,30.6,29.6,00.0,39.5,32.3,10.8,-001.1,0008.22,0016.81,0007.57
2022-03-02 20:10:00,,0828.7,4.99,0.00,30.6,29.7,00.0,39.5,32.3,10.9,-000.4,0008.35,0018.21,0007.68
2022-03-02 20:11:00,,0828.7,5.01,0.00,30.6,29.8,00.0,39.5,32.3,10.7,-000.0,0008.54,0019.13,0007.84
2022-03-02 20:12:00,,0828.7,4.99,0.00,30.6,29.8,00.0,39.5,32.4,10.7,0000.7,0008.68,0018.49,0007.98
2022-03-02 20:13:00,,0828.7,5.01,0.00,30.7,29.9,00.0,39.5,32.4,10.6,0001.1,0008.78,0017.71,0008.09
2022-03-02 20:14:00,,0828.6,4.98,0.00,30.7,29.9,00.0,39.6,32.4,10.4,0001.7,0008.86,0017.33,0008.17
2022-03-02 20:15:00,,0828.7,5.01,0.00,30.7,29.9,00.0,39.6,32.5,10.9,0002.9,0008.97,0017.52,0008.26
2022-03-02 20:16:00,,0828.6,5.00,0.00,30.8,30.0,00.0,39.6,32.5,10.8,0003.4,0009.11,0017.77,0008.35
2022-03-02 20:17:00,,0828.7,5.00,0.00,30.8,30.0,00.0,39.6,32.5,10.3,0003.6,0009.09,0017.13,0008.40
2022-03-02 20:18:00,,0828.6,4.99,0.00,30.8,30.1,00.0,39.6,32.6,10.5,0003.6,0009.08,0016.84,0008.41
2022-03-02 20:19:00,,0828.8,5.00,0.00,30.8,30.1,00.0,39.7,32.6,10.3,0002.6,0009.07,0016.99,0008.38
2022-03-02 20:20:00,,0828.7,5.00,0.00,30.8,29.5,00.0,39.7,32.5,10.4,0002.4,0008.98,0016.52,0008.35
2022-03-02 20:21:00,,0828.6,5.00,0.00,30.7,27.4,00.0,39.7,32.0,10.5,0005.0,0008.95,0015.71,0008.34
2022-03-02 20:22:00,,0828.6,5.00,0.00,30.5,26.5,00.0,39.6,31.8,10.4,0003.2,0008.90,0014.85,0008.30
2022-03-02 20:23:00,,0829.0,5.01,0.00,30.4,26.7,00.0,39.6,31.8,10.5,0000.4,0008.82,0014.71,0008.25
2022-03-02 20:24:00,,0829.1,5.00,0.00,30.3,27.2,00.0,39.5,31.8,10.4,0000.5,0008.71,0014.63,0008.17
2022-03-02 20:25:00,,0829.1,4.99,0.00,30.3,27.7,00.0,39.4,31.8,10.8,-000.2,0008.67,0014.60,0008.14
2022-03-02 20:26:00,,0829.0,5.00,0.00,30.3,28.0,00.0,39.4,31.8,10.8,-001.1,0008.67,0014.48,0008.15
2022-03-02 20:27:00,,0829.0,5.00,0.00,30.3,28.4,00.0,39.4,31.9,10.6,-002.0,0008.66,0015.49,0008.15
2022-03-02 20:28:00,,0828.8,5.00,0.00,30.3,28.7,00.0,39.4,31.9,10.6,-002.3,0008.63,0015.55,0008.15
2022-03-02 20:29:00,,0828.5,4.99,0.00,30.3,28.9,00.0,39.4,32.0,10.7,-002.1,0008.71,0015.49,0008.21
2022-03-02 20:30:00,,0828.5,5.02,0.00,30.3,29.1,00.0,39.4,32.0,10.9,-001.0,0008.78,0014.66,0008.30
2022-03-02 20:31:00,,0828.4,5.00,0.00,30.4,29.2,00.0,39.4,32.1,11.0,-000.4,0008.91,0014.85,0008.39
2022-03-02 20:32:00,,0828.5,5.00,0.00,30.4,29.3,00.0,39.3,32.1,10.6,-000.5,0009.01,0014.50,0008.45
2022-03-02 20:33:00,,0828.4,4.98,0.00,30.4,29.4,00.0,39.3,32.1,10.6,-000.1,0009.04,0015.36,0008.49
2022-03-02 20:34:00,,0828.5,5.00,0.00,30.4,29.5,00.0,39.4,32.2,10.8,0000.3,0009.13,0015.47,0008.55
2022-03-02 20:35:00,,0828.5,5.01,0.00,30.5,29.6,00.0,39.4,32.2,10.5,0000.1,0009.22,0015.53,0008.62
2022-03-02 20:36:00,,0828.5,4.99,0.00,30.5,29.6,00.0,39.4,32.3,10.9,0001.3,0009.35,0016.27,0008.70
2022-03-02 20:37:00,,0828.4,5.00,0.00,30.5,29.6,00.0,39.4,32.3,11.1,0000.5,0009.48,0016.76,0008.80
2022-03-02 20:38:00,,0828.4,5.00,0.00,30.6,29.7,00.0,39.4,32.3,11.1,0001.5,0009.63,0016.43,0008.92
2022-03-02 20:39:00,,0828.4,4.99,0.00,30.6,29.7,00.0,39.4,32.4,11.2,0003.2,0009.84,0016.88,0009.07
2022-03-02 20:40:00,,0828.4,5.01,0.00,30.6,29.8,00.0,39.5,32.4,10.9,0002.7,0009.97,0017.46,0009.18
2022-03-02 20:41:00,,0828.4,5.00,0.00,30.7,29.8,00.0,39.5,32.4,11.0,0000.8,0010.06,0018.17,0009.26
2022-03-02 20:42:00,,0828.4,4.99,0.00,30.7,29.9,00.0,39.5,32.4,10.8,0000.1,0010.10,0019.00,0009.28
2022-03-02 20:43:00,,0828.3,5.01,0.00,30.7,29.9,00.0,39.5,32.5,10.8,-000.1,0010.11,0019.01,0009.30
2022-03-02 20:44:00,,0828.3,4.99,0.00,30.7,29.9,00.0,39.6,32.5,10.6,-000.3,0010.08,0018.45,0009.29
2022-03-02 20:45:00,,0828.3,5.01,0.00,30.7,29.9,00.0,39.6,32.5,10.3,0000.2,0010.02,0019.09,0009.25
2022-03-02 20:46:00,,0828.3,5.00,0.00,30.8,29.5,00.0,39.6,32.4,10.3,0000.3,0009.99,0019.46,0009.23
2022-03-02 20:47:00,,0828.3,4.99,0.00,30.6,27.3,00.0,39.6,31.9,10.3,0000.7,0009.90,0018.77,0009.18
2022-03-02 20:48:00,,0828.2,5.01,0.00,30.4,26.1,00.0,39.5,31.5,10.5,0002.1,0009.77,0018.24,0009.08
2022-03-02 20:49:00,,0828.2,5.00,0.00,30.3,26.3,00.0,39.5,31.5,10.5,0001.9,0009.63,0018.08,0008.97
2022-03-02 20:50:00,,0828.2,5.01,0.00,30.2,26.8,00.0,39.4,31.5,10.7,0000.8,0009.45,0017.80,0008.81
2022-03-02 20:51:00,,0828.3,4.99,0.00,30.1,27.3,00.0,39.3,31.6,10.9,-000.0,0009.26,0017.06,0008.65
2022-03-02 20:52:00,,0828.3,5.02,0.00,30.1,27.7,00.0,39.3,31.7,10.9,0000.6,0009.10,0016.26,0008.49
2022-03-02 20:53:00,,0828.3,4.98,0.00,30.1,28.1,00.0,39.3,31.7,10.8,0002.2,0008.99,0015.31,0008.38
2022-03-02 20:54:00,,0828.5,5.01,0.00,30.2,28.3,00.0,39.2,31.8,10.6,0003.1,0008.92,0016.01,0008.29
2022-03-02 20:55:00,,0828.2,5.00,0.00,30.2,28.6,00.0,39.2,31.9,10.6,0002.8,0008.95,0015.90,0008.27
2022-03-02 20:56:00,,0828.2,5.01,0.00,30.2,28.7,00.0,39.2,31.9,10.6,0001.9,0008.90,0015.04,0008.24
2022-03-02 20:57:00,,0828.3,4.99,0.00,30.2,28.9,00.0,39.2,31.9,10.6,0002.3,0008.87,0014.60,0008.22
2022-03-02 20:58:00,,0828.2,5.00,0.00,30.2,29.0,00.0,39.2,32.0,10.4,0001.4,0008.82,0014.60,0008.18
2022-03-02 20:59:00,,0828.2,5.02,0.00,30.3,29.2,00.0,39.2,32.0,10.0,0001.5,0008.73,0014.50,0008.08
